User: anonymous   Login
Location: Skalnate Pleso
(49.1889°N, 20.2450°E)
Time: 13:55:30
(UTC+02:00)
Language:

Iridium 45 - Orbit

View from above orbital plane
View from above orbital plane
View from above satellite
View from above satellite

Ground track
Ground track

The orbit data is extracted from the following two-line orbital elements,

1 25104U 97082A   14297.48865633  .00000253  00000-0  83394-4 0  9489
2 25104 087.0235 314.1626 0002072 116.8639 243.2769 14.34215326881817
Epoch (UTC): 24 October 2014 11:43:39
Eccentricity: 0.0002072
inclination: 87.0235°
perigee height: 776 km
apogee height: 779 km
right ascension of ascending node: 314.1626°
argument of perigee: 116.8639°
revolutions per day: 14.34215326
mean anomaly at epoch: 243.2769°
orbit number at epoch: 88181

The dashed part of the orbit path shows where the satellite is in the earth's shadow,  

DLR